Find Starlink 4040

NORAD ID: 53151 Int'l Des: 2022-083 Owner: SPXS Country: US Constellation: starlink operational
LEOCIRCULAR

Live Position

Loading 3D Globe...

About Starlink 4040

Description loading...

Upcoming Passes

Passes for default location (London). Set your location on the main map for personalized predictions.

Altitude History

Loading altitude history...

Two-Line Element Set

1 53151U 22083V 26122.85260527 -.00000666 00000-0 -23764-4 0 9994
2 53151 53.2188 280.9763 0001295 95.0985 265.0155 15.08836093209538
Epoch: May 2, 2026 • Age: 8 hours

Current Status

Altitude 543.8 km
Velocity 7.60 km/s
Sub-Earth Point 45.89°N, 114.33°E
Launch Date Jul 17, 2022
Age 3.7 years
Type internet

Technical Details

Classification Payload
Mass 297.00 kg
Dry Mass 275.00 kg
Total Mass 297.00 kg
Length 0.20 m
Diameter 2.80 m
Span 9.00 m
Shape Box + pan
Manufacturer SPXS
Bus Type Starlink
Phase Status In Orbit
Owner/State SPXS/US

Most Searched